Change the Weather History Date:

Thursday, September 27, 2012

  Actual Average Record
Temperature  
Mean Temperature 80 °F -  
Max Temperature 84 °F 89 °F 94 °F (1974)
Min Temperature 75 °F 73 °F 63 °F (1977)
Cooling Degree Days 14    
Growing Degree Days 30 (Base 50)    
Moisture  
Dew Point 74 °F    
Average Humidity 81    
Maximum Humidity 97    
Minimum Humidity 69    
Precipitation  
Precipitation 0.00 in - - ()
Sea Level Pressure  
Sea Level Pressure 30.05 in    
Wind  
Wind Speed 6 mph (NE)    
Max Wind Speed 14 mph    
Max Gust Speed -    
Visibility 10 miles    
Events Rain , Thunderstorm    
Averages and records for this station are not official NWS values.
T = Trace of Precipitation, MM = Missing Value Source: NWS Daily Summary

Daily Weather History Graph

Daily Weather History Graph

Search for Another Location

Airport or City:

Trip Planner

Search our weather history database for the weather conditions in past years. The results will help you decide how hot, cold, wet, or windy it might be!

Date:

Astronomy

Sep. 27, 2012 Rise Set
Actual Time 7:11 AM EDT 7:10 PM EDT
Civil Twilight 6:48 AM EDT 7:33 PM EDT
Nautical Twilight 6:21 AM EDT 8:00 PM EDT
Astronomical Twilight 5:54 AM EDT 8:27 PM EDT
Moon 5:33 PM EDT (9/27) 4:49 AM EDT (9/27)
Length of Visible Light 12h 45m
Length of Day
11h 59m
Waxing Gibbous, 94% of the Moon is Illuminated
Sep 27
Waxing Gibbous
Sep 29
Full
Oct 8
Last Quarter
Oct 15
New
Oct 21
First Quarter

Hourly Weather History & Observations

Time (EDT) Temp. Heat Index Dew Point Humidity Pressure Visibility Wind Dir Wind Speed Gust Speed Precip Events Conditions
12:53 AM 79.0 °F - 73.9 °F 84% 30.08 in 10.0 mi ENE 6.9 mph - N/A   Clear
1:53 AM 78.1 °F - 73.0 °F 84% 30.06 in 10.0 mi ENE 4.6 mph - N/A   Partly Cloudy
2:53 AM 78.1 °F - 73.9 °F 87% 30.04 in 10.0 mi East 4.6 mph - N/A   Clear
3:53 AM 78.1 °F - 73.9 °F 87% 30.03 in 10.0 mi Calm Calm - N/A   Clear
4:53 AM 75.9 °F - 73.0 °F 91% 30.03 in 10.0 mi Calm Calm - N/A   Clear
6:53 AM 75.0 °F - 73.9 °F 96% 30.06 in 10.0 mi Calm Calm - N/A   Clear
7:53 AM 75.9 °F - 75.0 °F 97% 30.06 in 10.0 mi NNW 3.5 mph - N/A   Mostly Cloudy
8:53 AM 81.0 °F 86.7 °F 75.0 °F 82% 30.08 in 10.0 mi North 4.6 mph - N/A   Clear
9:53 AM 82.9 °F 89.4 °F 73.9 °F 74% 30.09 in 10.0 mi NNE 8.1 mph - N/A   Partly Cloudy
10:53 AM 82.9 °F 88.8 °F 73.0 °F 72% 30.09 in 10.0 mi Variable 5.8 mph - N/A   Partly Cloudy
11:53 AM 84.0 °F 90.2 °F 73.0 °F 69% 30.09 in 10.0 mi NE 6.9 mph - N/A   Partly Cloudy
12:53 PM 82.9 °F 90.2 °F 75.0 °F 77% 30.07 in 10.0 mi ENE 9.2 mph - N/A   Clear
1:53 PM 84.0 °F 92.6 °F 75.9 °F 76% 30.05 in 10.0 mi NE 13.8 mph - N/A   Clear
2:53 PM 84.0 °F 91.2 °F 73.9 °F 72% 30.03 in 10.0 mi NE 11.5 mph - N/A   Mostly Cloudy
3:53 PM 82.0 °F 87.9 °F 73.9 °F 76% 30.02 in 10.0 mi ENE 9.2 mph - N/A   Mostly Cloudy
5:53 PM 80.1 °F 84.5 °F 73.9 °F 81% 30.00 in 10.0 mi NE 9.2 mph - N/A   Clear
6:53 PM 80.1 °F 84.5 °F 73.9 °F 81% 30.02 in 10.0 mi NE 4.6 mph - N/A   Mostly Cloudy
7:53 PM 80.1 °F 84.2 °F 73.0 °F 79% 30.03 in 10.0 mi ENE 8.1 mph - N/A   Clear
8:53 PM 80.1 °F 84.5 °F 73.9 °F 81% 30.06 in 10.0 mi NE 6.9 mph - N/A Thunderstorm Clear
9:09 PM 80.6 °F 85.4 °F 73.4 °F 79% 30.06 in 10.0 mi NE 8.1 mph - N/A Thunderstorm Clear
9:53 PM 78.1 °F - 70.0 °F 76% 30.06 in 10.0 mi NNW 5.8 mph - N/A Thunderstorm Scattered Clouds
9:59 PM 78.8 °F - 69.8 °F 74% 30.06 in 10.0 mi North 4.6 mph - N/A   Mostly Cloudy
10:23 PM 80.6 °F 85.4 °F 73.4 °F 79% 30.05 in 10.0 mi ENE 10.4 mph - 0.00 in Rain Light Rain
10:53 PM 79.0 °F - 73.9 °F 84% 30.05 in 10.0 mi East 9.2 mph - 0.00 in   Clear
11:53 PM 79.0 °F - 73.9 °F 84% 30.04 in 10.0 mi East 6.9 mph - N/A   Clear